Home   Weather   Rarotonga   Past weeks

Flag for Cook Islands Past Weather in Rarotonga, Cook Islands — Yesterday and Last 2 Weeks

Now
75 °F

Rain showers. Mostly cloudy.


Feels Like: 74 °F
Forecast: 74 / 80 °F
Wind: 6 mph from Southwest

Location: Rarotonga

Current Time: Apr 28, 2017 at 12:05:01 pm

Latest Report: Apr 28, 2017 at 11:30 am


Visibility: N/A

Pressure: 29.89 "Hg

Humidity: 94%

Dew Point: 73 °F

Location of RarotongaLocation

Past Weather in Rarotonga — Graph

°F

Rarotonga Temperature Yesterday

Maximum temperature yesterday: 84 °F (at 1:00 pm)
Minimum temperature yesterday: 81 °F (at 3:00 am)
Average temperature yesterday: 82 °F

High & Low Weather Summary for the Past Weeks

 TemperatureHumidityPressure
High86 °F (Apr 16, 11:00 am)100% (Apr 13, 12:00 pm)30.04 "Hg (Apr 13, 12:00 pm)
Low75 °F (Apr 20, 4:00 am)19% (Apr 17, 12:00 am)29.45 "Hg (Apr 13, 3:00 pm)
Average82 °F80%29.87 "Hg
* Reported Apr 13 11:00 am — Apr 28 11:00 am, Rarotonga, Weather by CustomWeather, © 2017

Note: Actual official high and low records may vary slightly from our data, if they occured in-between our weather recording intervals... More about our weather records

Advertising

Rarotonga Weather History for the Previous 24 Hours

Scroll right to see more
 ConditionsComfort  
Time TempWeatherWind HumidityBarometerVisibility
11:00 am
Fri, Apr 28
77 °FLots of rain. More clouds than sun.14 mph94%29.92 "HgN/A
10:00 am81 °FDrizzle. More clouds than sun.9 mph89%29.86 "HgN/A
9:00 am82 °FSprinkles. More clouds than sun.14 mph84%29.86 "HgN/A
8:00 am82 °FPartly sunny.15 mph84%29.86 "HgN/A
7:00 am81 °FPassing clouds.13 mph94%29.83 "HgN/A
6:00 am81 °FScattered showers. Partly cloudy.10 mph84%29.83 "HgN/A
5:00 am79 °FRain showers. Partly cloudy.12 mph89%29.83 "HgN/A
4:00 am82 °FPassing clouds.16 mph84%29.83 "HgN/A
3:00 am81 °FPassing clouds.14 mph89%29.86 "HgN/A
2:00 am82 °FPartly cloudy.13 mph84%29.83 "HgN/A
1:00 am82 °FPartly cloudy.14 mph84%29.86 "HgN/A
12:00 am82 °FPartly cloudy.14 mph84%29.89 "HgN/A
11:00 pm
Thu, Apr 27
82 °FPartly cloudy.13 mph84%29.89 "HgN/A
10:00 pm82 °FPartly cloudy.12 mph84%29.92 "HgN/A
9:00 pm82 °FPartly cloudy.12 mph84%29.92 "HgN/A
8:00 pm82 °FPartly cloudy.14 mph84%29.89 "HgN/A
7:00 pm82 °FBroken clouds.12 mph84%29.89 "HgN/A
6:00 pm82 °FBroken clouds.13 mph84%29.86 "HgN/A
5:00 pm82 °FBroken clouds.10 mph84%29.86 "HgN/A
4:00 pm84 °FMore clouds than sun.12 mph79%29.86 "HgN/A
3:00 pm84 °FBroken clouds.10 mph79%29.86 "HgN/A
2:00 pm84 °FPartly sunny.9 mph79%29.89 "HgN/A
1:00 pm84 °FBroken clouds.12 mph79%29.92 "HgN/A
12:00 pm82 °FPartly sunny.9 mph79%29.95 "HgN/A
Weather by CustomWeather, © 2017

See weather overviewHow to use our weather pages